TimeCST,TemperatureF,Dew PointF,Humidity,Sea Level PressureIn,VisibilityMPH,Wind Direction,Wind SpeedMPH,Gust SpeedMPH,PrecipitationIn,Events,Conditions,WindDirDegrees,DateUTC
12:44 AM,32.0,30.2,93,29.70,2.0,ESE,12.7,-,0.01,,Overcast,120,2013-12-03 06:44:00
12:54 AM,32.0,30.0,92,29.74,2.0,ESE,11.5,-,0.01,Rain,Light Freezing Rain,120,2013-12-03 06:54:00
1:07 AM,32.0,30.2,93,29.70,1.5,ESE,12.7,-,0.00,Rain,Light Freezing Rain,120,2013-12-03 07:07:00
1:49 AM,33.8,30.2,87,29.69,2.0,SE,15.0,21.9,0.00,Rain,Light Freezing Rain,130,2013-12-03 07:49:00
1:54 AM,33.1,30.9,92,29.73,2.0,SE,13.8,-,0.00,Rain,Light Freezing Rain,130,2013-12-03 07:54:00
2:54 AM,33.1,30.9,92,29.74,2.5,SE,12.7,-,0.00,Rain,Light Freezing Rain,130,2013-12-03 08:54:00
3:03 AM,33.8,30.2,87,29.69,3.0,SE,12.7,19.6,0.00,Rain,Light Freezing Rain,130,2013-12-03 09:03:00
3:25 AM,33.8,30.2,87,29.69,2.5,SE,13.8,-,0.00,Rain,Light Freezing Rain,130,2013-12-03 09:25:00
3:36 AM,33.8,30.2,87,29.69,2.5,ESE,15.0,20.7,0.00,,Overcast,120,2013-12-03 09:36:00
3:54 AM,33.1,30.9,92,29.73,3.0,ESE,12.7,-,0.00,,Overcast,120,2013-12-03 09:54:00
4:54 AM,33.1,30.9,92,29.73,5.0,ESE,13.8,-,N/A,,Overcast,120,2013-12-03 10:54:00
5:54 AM,33.1,30.9,92,29.73,3.0,ESE,15.0,-,N/A,,Overcast,120,2013-12-03 11:54:00
6:51 AM,33.8,30.2,87,29.70,3.0,ESE,11.5,-,N/A,,Overcast,120,2013-12-03 12:51:00
6:54 AM,33.1,30.9,92,29.75,3.0,ESE,9.2,-,N/A,,Overcast,110,2013-12-03 12:54:00
7:14 AM,33.8,30.2,87,29.71,2.5,ESE,10.4,-,N/A,,Overcast,110,2013-12-03 13:14:00
7:44 AM,33.8,30.2,87,29.71,1.2,ESE,11.5,-,N/A,,Overcast,110,2013-12-03 13:44:00
7:54 AM,33.1,30.9,92,29.75,1.2,ESE,15.0,-,N/A,,Overcast,110,2013-12-03 13:54:00
8:54 AM,33.1,30.9,92,29.76,1.8,East,12.7,-,N/A,,Overcast,100,2013-12-03 14:54:00
9:03 AM,33.8,30.2,87,29.72,2.0,East,16.1,20.7,N/A,,Overcast,90,2013-12-03 15:03:00
9:51 AM,32.0,30.2,93,29.73,2.0,East,17.3,24.2,0.00,Rain,Light Freezing Rain,90,2013-12-03 15:51:00
9:54 AM,32.0,30.0,92,29.78,2.5,East,13.8,24.2,0.00,Rain,Light Freezing Rain,90,2013-12-03 15:54:00
10:42 AM,32.0,30.2,93,29.75,2.5,ESE,13.8,24.2,0.00,,Overcast,110,2013-12-03 16:42:00
10:54 AM,32.0,30.0,92,29.79,2.5,East,13.8,21.9,0.00,,Overcast,100,2013-12-03 16:54:00
11:19 AM,32.0,30.2,93,29.75,3.0,East,13.8,23.0,0.00,,Overcast,100,2013-12-03 17:19:00
11:30 AM,32.0,30.2,93,29.74,3.0,East,11.5,21.9,0.00,,Overcast,100,2013-12-03 17:30:00
11:54 AM,32.0,30.0,92,29.78,2.5,East,15.0,25.3,0.00,,Overcast,100,2013-12-03 17:54:00
12:15 PM,32.0,30.2,93,29.73,1.8,East,12.7,24.2,N/A,,Overcast,100,2013-12-03 18:15:00
12:23 PM,32.0,30.2,93,29.73,2.0,East,12.7,24.2,N/A,,Overcast,90,2013-12-03 18:23:00
12:54 PM,32.0,30.0,92,29.76,2.0,East,18.4,25.3,N/A,,Overcast,90,2013-12-03 18:54:00
1:15 PM,32.0,30.2,93,29.71,3.0,East,15.0,27.6,N/A,,Overcast,90,2013-12-03 19:15:00
1:54 PM,32.0,28.9,88,29.75,2.5,East,13.8,-,0.00,Snow,Light Snow,100,2013-12-03 19:54:00
2:09 PM,32.0,28.4,87,29.71,1.5,East,15.0,-,0.00,Snow,Light Snow,90,2013-12-03 20:09:00
2:22 PM,32.0,28.4,87,29.71,1.0,East,13.8,20.7,0.00,Snow,Light Snow,90,2013-12-03 20:22:00
2:29 PM,32.0,28.4,87,29.72,0.8,East,13.8,20.7,0.00,Snow,Light Snow,90,2013-12-03 20:29:00
2:54 PM,32.0,28.9,88,29.78,0.5,East,9.2,-,0.01,Fog-Snow,Snow,90,2013-12-03 20:54:00
3:12 PM,30.2,30.2,100,29.74,0.2,East,11.5,-,0.03,Fog-Snow,Heavy Snow,80,2013-12-03 21:12:00
3:54 PM,30.9,28.9,92,29.77,0.2,East,12.7,-,0.05,Fog-Snow,Snow,90,2013-12-03 21:54:00
4:17 PM,30.2,28.4,93,29.73,0.5,East,17.3,24.2,0.00,Fog-Snow,Snow,80,2013-12-03 22:17:00
4:36 PM,30.2,28.4,93,29.72,1.2,ENE,16.1,23.0,0.00,Snow,Light Snow,70,2013-12-03 22:36:00
4:47 PM,30.2,28.4,93,29.73,2.5,East,18.4,26.5,0.00,Snow,Light Snow,90,2013-12-03 22:47:00
4:54 PM,30.0,28.0,92,29.78,4.0,East,16.1,25.3,0.00,Snow,Light Snow,90,2013-12-03 22:54:00
5:30 PM,30.2,26.6,86,29.74,8.0,East,17.3,-,0.00,,Overcast,80,2013-12-03 23:30:00
5:54 PM,30.0,27.0,88,29.79,7.0,East,12.7,23.0,0.00,,Overcast,80,2013-12-03 23:54:00
6:03 PM,30.2,26.6,86,29.74,6.0,East,15.0,-,0.00,Rain,Light Freezing Rain,90,2013-12-04 00:03:00
6:35 PM,30.2,26.6,86,29.75,7.0,East,16.1,-,0.00,,Overcast,80,2013-12-04 00:35:00
6:54 PM,30.0,27.0,88,29.81,10.0,East,13.8,-,0.00,,Overcast,90,2013-12-04 00:54:00
7:54 PM,30.0,27.0,88,29.81,10.0,East,12.7,-,N/A,,Overcast,90,2013-12-04 01:54:00
8:54 PM,30.0,27.0,88,29.82,8.0,East,13.8,-,N/A,,Overcast,90,2013-12-04 02:54:00
9:54 PM,28.9,27.0,92,29.82,4.0,East,12.7,-,N/A,,Overcast,80,2013-12-04 03:54:00
10:46 PM,28.4,26.6,93,29.76,2.5,ENE,15.0,-,N/A,,Overcast,70,2013-12-04 04:46:00
10:54 PM,28.9,26.1,89,29.82,3.0,ENE,10.4,-,N/A,,Overcast,70,2013-12-04 04:54:00
11:22 PM,28.4,26.6,93,29.77,3.0,East,12.7,-,N/A,,Overcast,80,2013-12-04 05:22:00
11:54 PM,28.9,27.0,92,29.82,3.0,ENE,11.5,-,N/A,,Overcast,70,2013-12-04 05:54:00